"Pseudo-MPEC" for P11TJ46

Created 2024 Apr 24 19:22:05 UT using Find_Orb

Click here for an explanation of pseudo-MPECs

 
 Astrometry: 
     P11TJ46* C2024 04 19i[.aAstrometryj,=/g]_dyO9+)B*IK)9v8t:mk66Myx=+o'rRf6F51
     P11TJ46  C2024 04 19+p8D!vf_ElB8B[f\redacted;NXsd_rWe])rJ@#@2Hu.hZ.ZWF#8F51
     P11TJ46  C2024 04 193_@E2***!`;fDclickE^nehQdc:RwH3TH6l[OfZherebKfordFLKF51
     P11TJ46  C2024 04 19blo-+cLGQW1nq=k?Ph@F#p38X^$0M@VexplanationB'a_-.jes^F51

Station data:
(F51) Pan-STARRS 1, Haleakala  (N20.707234 W156.255910)  US/Hawaii.
   Observers J. Bulger, T. Lowe, A. Schultz, M. Willman. Measurers K.
   Chambers, S. Chastel, T. de Boer, L. Denneau, J. Fairlamb, H. Flewelling,
   M. Huber, C.-C. Lin, E. Magnier, Y. Ramanjooloo, R. Wainscoat, R. Weryk.
   1.8-m Ritchey-Chrétien + CCD.

Orbital elements:  P11TJ46
   Perihelion 2024 Jun 24.07556 +/- 31 TT =  1:48:48 (JD 2460485.57556)
Epoch 2024 Apr 20.0 TT = JDT 2460420.5   Earth MOID: 0.0094      AutoNEOCP
M 309.62587566 +/- 31               (J2000 ecliptic)
n   0.77408672 +/- 0.182            Peri.  267.79383 +/- 80
a   1.17474327 +/- 0.184            Node    35.55319 +/- 60
e   0.3756525 +/- 0.103             Incl.   31.88476 +/- 11
P   1.27/465.06d           H 24.96  G  0.15   U 11.6  SR
q 0.73344801 +/- 0.116    Q 1.61603853 +/- 0.366
From 4 observations 2024 Apr. 19 (28.6 min); mean residual 0".40
Residuals in arcseconds: 
240419 F51  .59+  .12+    240419 F51  .10-  .11+    
240419 F51  .84-  .24-    240419 F51  .34+  .00     

Ephemerides (geocentric):
Date (UTC) HH   RA             Dec           delta  r     elong  mag " sig PA
---- --------  ------------   ------------  ------ ------ -----  --- --------
2024 04 24 19  23 04 47.740   +21 34 30.95  .01123 0.9980  44.8 21??  65d  64
2024 04 24 20  23 13 38.459   +20 12 18.76  .01122 0.9977  42.7 21??  66d  65
2024 04 24 21  23 22 19.794   +18 48 29.24  .01123 0.9974  40.7 21??  66d  65
2024 04 24 22  23 30 50.539   +17 23 30.47  .01126 0.9972  38.6 22??  67d  65
2024 04 24 23  23 39 09.650   +15 57 50.90  .01131 0.9969  36.7 22??  67d  65
2024 04 25 00  23 47 16.252   +14 31 58.56  .01138 0.9966  34.8 22??  68d  65
2024 04 25 01  23 55 09.641   +13 06 20.41  .01148 0.9964  33.0 23??  68d  65
2024 04 25 02  00 02 49.272   +11 41 21.77  .01159 0.9961  31.3 23??  69d  65
2024 04 25 03  00 10 14.756   +10 17 25.83  .01172 0.9958  29.7 23??  69d  66
2024 04 25 04  00 17 25.844   +08 54 53.30  .01187 0.9956  28.3 24??  69d  66
2024 04 25 05  00 24 22.418   +07 34 02.21  .01204 0.9953  26.9 24??  69d  66
2024 04 25 06  00 31 04.474   +06 15 07.79  .01223 0.9950  25.7 24??  70d  66
2024 04 25 07  00 37 32.104   +04 58 22.51  .01243 0.9948  24.7 24??  70d  66
2024 04 25 08  00 43 45.490   +03 43 56.16  .01264 0.9945  23.8 25??  70d  66
2024 04 25 09  00 49 44.881   +02 31 56.00  .01288 0.9942  23.0 25??  70d  66
2024 04 25 10  00 55 30.586   +01 22 27.03  .01312 0.9940  22.4 25??  70d  66
2024 04 25 11  01 01 02.960   +00 15 32.18  .01338 0.9937  22.0 25??  70d  66
2024 04 25 12  01 06 22.393   -00 48 47.41  .01365 0.9934  21.7 26??  71d  66
2024 04 25 13  01 11 29.300   -01 50 32.12  .01393 0.9931  21.5 26??  71d  66
2024 04 25 14  01 16 24.116   -02 49 43.62  .01423 0.9929  21.4 26??  71d  66
2024 04 25 15  01 21 07.286   -03 46 24.62  .01453 0.9926  21.4 26??  71d  66
2024 04 25 16  01 25 39.261   -04 40 38.67  .01484 0.9923  21.6 26??  71d  66
2024 04 25 17  01 30 00.490   -05 32 29.96  .01517 0.9921  21.8 26??  71d  65
2024 04 25 18  01 34 11.420   -06 22 03.18  .01550 0.9918  22.1 26??  71d  65
2024 04 25 19  01 38 12.491   -07 09 23.34  .01584 0.9915  22.4 26??  71d  65
2024 04 25 20  01 42 04.132   -07 54 35.68  .01618 0.9913  22.8 26??  71d  65
2024 04 25 21  01 45 46.761   -08 37 45.56  .01654 0.9910  23.2 25??  70d  65
2024 04 25 22  01 49 20.785   -09 18 58.36  .01690 0.9907  23.6 25??  70d  65
2024 04 25 23  01 52 46.594   -09 58 19.47  .01726 0.9905  24.1 25??  70d  65
2024 04 26 00  01 56 04.565   -10 35 54.16  .01763 0.9902  24.5 25??  70d  65
2024 04 26 01  01 59 15.059   -11 11 47.61  .01801 .98994  25.0 25??  70d  65
2024 04 26 02  02 02 18.424   -11 46 04.83  .01839 .98967  25.5 25??  70d  65
2024 04 26 03  02 05 14.989   -12 18 50.67  .01878 .98940  26.0 25??  70d  65
2024 04 26 04  02 08 05.070   -12 50 09.80  .01917 .98914  26.4 25??  70d  65
2024 04 26 05  02 10 48.969   -13 20 06.67  .01957 .98887  26.9 25??  70d  65
2024 04 26 06  02 13 26.972   -13 48 45.56  .01997 .98860  27.4 25??  70d  65
2024 04 26 07  02 15 59.352   -14 16 10.51  .02037 .98833  27.9 25??  70d  65
2024 04 26 08  02 18 26.367   -14 42 25.40  .02078 .98807  28.3 25??  70d  65
2024 04 26 09  02 20 48.264   -15 07 33.87  .02119 .98780  28.8 25??  70d  64
2024 04 26 10  02 23 05.277   -15 31 39.40  .02160 .98753  29.2 25??  70d  64
2024 04 26 11  02 25 17.627   -15 54 45.26  .02202 .98726  29.6 25??  69d  64
2024 04 26 12  02 27 25.525   -16 16 54.55  .02244 .98700  30.1 25??  69d  64
2024 04 26 13  02 29 29.170   -16 38 10.20  .02286 .98673  30.5 24??  69d  64
2024 04 26 14  02 31 28.751   -16 58 34.98  .02329 .98646  30.9 24??  69d  64
2024 04 26 15  02 33 24.449   -17 18 11.48  .02371 .98620  31.3 24??  69d  64
2024 04 26 16  02 35 16.432   -17 37 02.17  .02414 .98593  31.6 24??  69d  64
2024 04 26 17  02 37 04.863   -17 55 09.35  .02458 .98566  32.0 24??  69d  64
2024 04 26 18  02 38 49.895   -18 12 35.22  .02501 .98539  32.4 24??  69d  64